GSAT0207 (PRN E07)

Last updated on Sat Jul 20 2024 00:03:12 GMT+0000 (Coordinated Universal Time)

1 41859U 16069A 24201.29788429 -.00000008 00000+0 00000+0 0 9994 2 41859 55.1030 120.4267 0004754 310.0457 49.9044 1.70473737 47500
UTC large
Height (km)
Speed (km/s)
/
Latitude / Longitude
Inclination (degrees)
Orbital Period (minutes)
Azimuth
Elevation
Range (km)
Doppler Factor

Next 0 passes for location: London (51.5072 / 0.1276)

Sorry there are no passes over London.